Tracking 33744 objects as of 12-Apr-2026
HD Live streaming from Space Station
objects crossing your sky now

STARLINK-36311

Track STARLINK-36311 now!
10-day predictions
STARLINK-36311 is classified as:


NORAD ID: 68525
Int'l Code: 2026-068T
Perigee: 334.4 km
Apogee: 335.7 km
Inclination: 53.2 °
Period: 91.1 minutes
Semi major axis: 6706 km
RCS: Unknown
Launch date: March 30, 2026
Source: United States (US)
Launch site: AIR FORCE EASTERN TEST RANGE (AFETR)
Your satellite tracking list
Your tracking list is empty




NASA's NSSDC Master Catalog

Two Line Element Set (TLE):
1 68525U 26068T   26102.50001156 -.00047532  00000-0 -23834-3 0  9993
2 68525  53.1591 339.7245 0000930  98.5984  34.0924 15.80896617  3196
Source of the keplerian elements: AFSPC